Probability
6 19 26 26 29 32 32 35 32 32 32 35 35 42 42 45 39 45 39 39 29 35 32 32 35 35 29 29 26 19 13 10 13 19 16 13 10 13 3 10 0 0 3
6 19 26 26 32 29 26 26 26 29 29 29 32 26 26 32 35 32 35 35 32 32 29 26 29 29 35 35 29 19 16 13 13 16 23 16 10 10 10 10 3 3 0
6 16 16 19 23 26 26 26 26 26 26 29 29 26 23 26 19 23 23 32 32 32 29 16 19 23 26 32 29 29 16 13 10 13 10 3 6 6 10 10 10 0 3
6 16 16 19 19 19 23 26 26 26 26 26 26 26 23 19 16 16 16 26 16 13 23 26 19 19 23 26 26 29 26 16 16 10 0 0 0 6 13 13 6 0 3
10 16 16 19 19 19 19 19 23 23 26 26 23 23 23 16 13 13 19 19 19 19 13 19 16 13 16 19 23 29 26 16 10 3 0 3 3 10 16 13 10 6 6
16 16 16 19 19 19 19 19 19 19 23 23 23 23 19 19 16 16 16 16 16 19 16 16 19 13 10 13 13 16 19 16 10 6 6 3 3 10 10 19 13 10 10
16 16 16 16 19 19 19 19 19 19 19 19 19 19 19 19 16 16 19 16 16 16 16 13 10 13 13 6 13 13 10 3 6 10 10 6 10 10 10 16 13 6 3
16 16 16 16 16 16 16 16 16 19 16 16 16 16 19 19 16 16 16 16 13 10 13 10 10 6 3 6 6 10 10 0 0 3 10 13 10 10 6 10 13 6 10
13 13 13 13 13 13 13 13 13 13 13 13 10 10 10 13 13 10 10 10 13 10 10 6 6 6 3 6 10 6 3 0 0 0 3 6 6 10 10 6 13 10 10
10 10 10 10 13 13 13 13 13 13 13 10 10 6 3 3 6 3 0 3 3 10 6 10 10 6 3 3 3 6 3 0 3 0 3 3 0 6 10 10 16 13 6
10 10 10 10 10 10 13 10 13 10 10 6 6 0 0 3 3 3 0 0 0 0 0 3 3 6 3 3 3 3 0 3 3 0 0 0 0 3 6 10 19 13 6
10 10 10 10 10 10 10 10 10 10 6 6 6 3 3 3 3 0 0 0 0 0 0 0 0 0 0 3 3 3 6 3 3 3 0 0 3 3 3 3 13 19 6
6 10 10 10 10 10 10 6 6 6 6 3 3 3 3 3 3 0 0 3 0 0 0 0 0 0 0 3 3 3 6 3 3 3 0 0 0 3 6 6 6 6 10
6 6 6 6 6 6 3 3 3 0 3 3 3 3 3 3 3 0 0 0 3 3 3 3 0 0 0 0 0 3 3 6 3 3 0 0 0 0 3 6 10 10 13
6 6 6 6 6 6 3 0 0 0 0 3 3 3 3 3 3 0 0 0 0 3 3 3 0 0 0 0 0 0 3 3 3 3 0 0 0 0 0 6 3 10 10
6 6 6 6 3 6 3 0 0 0 0 0 3 3 3 3 3 3 0 0 0 0 0 0 0 0 0 0 0 0 0 0 0 3 3 0 0 0 0 0 3 3 10
3 6 3 3 3 3 0 0 0 0 0 0 0 0 3 3 3 3 0 0 0 0 0 0 0 0 0 0 0 0 0 0 0 0 0 0 0 0 0 0 0 0 3
0 3 3 3 0 0 0 0 0 0 0 0 0 0 3 3 3 3 0 0 0 0 0 0 3 0 0 0 0 0 0 0 0 0 0 0 0 0 0 0 0 0 0
0 0 3 3 0 0 0 0 0 0 0 0 0 0 0 3 3 3 0 0 0 0 0 0 0 0 0 0 0 0 0 0 0 0 0 0 0 0 0 0 0 0 0
0 0 3 3 3 0 0 0 0 0 0 0 0 0 0 0 3 0 0 0 0 0 0 0 0 0 0 0 0 0 0 0 0 0 0 0 0 0 0 0 0 0 0
0 0 3 0 0 0 0 0 0 0 0 0 0 0 0 0 0 0 0 0 0 0 0 0 0 0 0 0 0 0 0 0 0 0 0 0 0 0 0 0 0 0 0
0 0 3 3 3 3 0 0 0 0 0 0 0 0 0 0 0 0 0 0 0 0 0 0 0 0 0 0 0 0 0 0 0 0 0 0 0 0 0 0 0 0 0
0 3 3 3 3 3 0 0 0 0 0 0 0 0 0 0 0 0 0 0 0 0 0 0 0 0 0 0 0 0 0 0 0 0 0 0 0 0 0 0 0 0 0
0 3 3 3 3 3 3 0 0 0 0 0 0 0 0 0 0 0 0 0 0 0 0 0 0 0 0 0 0 0 0 0 0 0 0 0 0 0 0 0 0 0 0
0 0 3 3 3 3 3 0 0 0 0 0 0 0 0 0 0 0 0 0 0 0 0 0 0 0 0 0 0 0 0 0 0 0 0 0 0 0 0 0 0 0 0
0 0 0 3 3 3 0 0 0 0 0 0 0 0 0 0 0 0 0 0 0 0 0 0 0 0 0 0 0 0 0 0 0 0 0 0 0 0 0 0 0 0 0
Height
5855 5856 5857 5858 5858 5859 5860 5861 5861 5862 5862 5863 5863 5863 5863 5863 5863 5863 5863 5863 5863 5863 5863 5863 5863 5862 5862 5862 5862 5861 5861 5861 5861 5860 5860 5860 5859 5859 5858 5858 5858 5857 5857
5852 5853 5854 5855 5856 5856 5857 5858 5859 5859 5860 5860 5861 5861 5861 5861 5861 5861 5861 5861 5861 5861 5860 5860 5860 5860 5860 5860 5859 5859 5859 5858 5858 5858 5858 5857 5857 5856 5856 5856 5855 5855 5855
5849 5850 5851 5852 5853 5854 5854 5855 5856 5856 5857 5857 5858 5858 5858 5858 5858 5858 5858 5858 5858 5858 5858 5858 5857 5857 5857 5857 5856 5856 5856 5856 5855 5855 5855 5854 5854 5854 5853 5853 5853 5852 5852
5845 5846 5847 5849 5850 5850 5851 5852 5853 5853 5854 5854 5855 5855 5855 5855 5855 5855 5855 5855 5855 5855 5855 5854 5854 5854 5854 5853 5853 5853 5853 5853 5852 5852 5851 5851 5851 5850 5850 5850 5850 5849 5849
5842 5843 5844 5845 5846 5847 5848 5849 5849 5850 5850 5851 5851 5851 5852 5852 5852 5852 5852 5852 5852 5851 5851 5851 5851 5850 5850 5850 5849 5849 5849 5849 5848 5848 5848 5847 5847 5847 5846 5846 5846 5846 5845
5838 5839 5841 5842 5843 5843 5844 5845 5846 5846 5847 5847 5847 5848 5848 5848 5848 5848 5848 5847 5847 5847 5847 5847 5846 5846 5846 5846 5845 5845 5845 5845 5844 5844 5843 5843 5843 5843 5842 5842 5842 5842 5841
5834 5835 5837 5838 5839 5839 5840 5841 5841 5842 5843 5843 5843 5843 5843 5843 5843 5843 5843 5843 5843 5842 5842 5842 5841 5841 5841 5841 5841 5840 5840 5840 5840 5839 5839 5838 5838 5838 5838 5837 5837 5837 5837
5830 5831 5832 5833 5834 5835 5836 5837 5837 5838 5838 5838 5838 5839 5839 5839 5839 5838 5838 5838 5838 5837 5837 5837 5836 5836 5836 5835 5835 5835 5835 5834 5834 5834 5834 5833 5833 5833 5832 5832 5832 5832 5832
5825 5826 5827 5828 5829 5830 5831 5832 5832 5833 5833 5833 5834 5834 5833 5833 5833 5833 5833 5833 5832 5832 5831 5831 5831 5830 5830 5830 5829 5829 5829 5828 5828 5828 5828 5828 5827 5827 5827 5827 5826 5826 5826
5820 5821 5822 5823 5824 5825 5826 5827 5827 5828 5828 5828 5828 5828 5828 5828 5828 5828 5827 5827 5826 5826 5826 5825 5825 5824 5824 5824 5823 5823 5822 5822 5822 5821 5821 5821 5821 5821 5820 5820 5820 5820 5820
5814 5816 5817 5818 5819 5820 5821 5821 5822 5822 5822 5823 5823 5822 5822 5822 5822 5821 5821 5820 5820 5820 5819 5819 5818 5818 5817 5817 5816 5816 5815 5815 5815 5814 5814 5814 5814 5813 5813 5813 5813 5813 5813
5809 5810 5811 5812 5813 5814 5815 5815 5816 5816 5817 5817 5817 5816 5816 5816 5816 5815 5815 5814 5813 5813 5812 5812 5811 5810 5810 5809 5809 5808 5807 5807 5807 5807 5806 5806 5806 5806 5805 5805 5805 5805 5805
5802 5804 5805 5806 5807 5808 5809 5809 5810 5810 5810 5810 5810 5810 5810 5809 5809 5809 5808 5807 5806 5805 5805 5804 5803 5803 5802 5801 5800 5800 5799 5799 5798 5798 5798 5798 5797 5797 5797 5797 5797 5797 5797
5796 5797 5798 5800 5801 5802 5802 5803 5803 5804 5804 5804 5804 5803 5803 5803 5802 5802 5801 5800 5799 5798 5797 5796 5795 5794 5793 5792 5792 5791 5790 5789 5789 5789 5789 5788 5788 5788 5787 5787 5787 5787 5787
5789 5791 5792 5793 5794 5795 5796 5796 5797 5797 5797 5797 5797 5797 5796 5796 5795 5794 5793 5792 5791 5790 5788 5787 5786 5785 5784 5783 5782 5781 5781 5780 5779 5778 5779 5778 5778 5777 5777 5777 5777 5777 5777
5783 5784 5785 5786 5787 5788 5789 5790 5790 5790 5790 5790 5790 5790 5789 5788 5788 5787 5785 5784 5782 5781 5779 5778 5777 5775 5774 5773 5772 5771 5770 5769 5768 5768 5767 5767 5767 5767 5766 5766 5766 5766 5766
5776 5777 5779 5780 5781 5782 5783 5783 5783 5783 5783 5783 5783 5782 5781 5781 5779 5778 5777 5775 5774 5772 5770 5768 5767 5765 5764 5763 5762 5760 5759 5758 5757 5756 5755 5755 5755 5755 5755 5754 5754 5754 5755
5769 5771 5772 5773 5774 5775 5776 5776 5776 5776 5776 5776 5775 5774 5773 5772 5771 5769 5768 5766 5764 5762 5760 5758 5756 5754 5752 5751 5750 5748 5747 5746 5744 5743 5742 5742 5741 5741 5741 5741 5741 5742 5742
5763 5764 5765 5766 5767 5768 5768 5769 5769 5769 5768 5768 5767 5766 5765 5763 5762 5760 5758 5756 5754 5752 5749 5747 5745 5742 5740 5738 5737 5736 5734 5733 5731 5730 5729 5727 5727 5726 5727 5727 5727 5727 5728
5756 5757 5758 5759 5760 5760 5761 5761 5761 5761 5760 5759 5758 5757 5756 5754 5752 5750 5748 5746 5743 5741 5738 5735 5732 5730 5727 5725 5723 5722 5720 5718 5716 5715 5713 5712 5711 5711 5710 5711 5712 5712 5713
5749 5750 5751 5752 5752 5753 5753 5753 5753 5753 5752 5751 5749 5748 5746 5744 5742 5740 5737 5735 5732 5729 5726 5723 5720 5717 5714 5711 5709 5707 5706 5703 5701 5699 5697 5695 5694 5693 5693 5693 5694 5695 5697
5742 5743 5744 5745 5745 5745 5745 5745 5745 5744 5743 5742 5740 5738 5736 5734 5731 5729 5726 5723 5720 5717 5714 5710 5706 5703 5700 5696 5693 5690 5690 5689 5685 5683 5680 5678 5676 5675 5675 5675 5675 5677 5679
5734 5735 5736 5737 5737 5737 5737 5737 5736 5735 5734 5732 5730 5728 5726 5723 5720 5717 5714 5711 5707 5704 5701 5697 5693 5689 5686 5682 5677 5673 5671 5670 5669 5668 5664 5661 5659 5657 5656 5656 5656 5658 5660
5726 5727 5728 5728 5729 5729 5728 5728 5727 5726 5724 5722 5720 5718 5715 5712 5709 5706 5702 5699 5695 5691 5687 5684 5679 5675 5671 5667 5663 5658 5654 5651 5648 5649 5649 5645 5642 5640 5639 5638 5638 5639 5641
5718 5719 5720 5720 5720 5720 5719 5718 5717 5716 5714 5712 5710 5707 5704 5701 5697 5694 5690 5686 5682 5678 5674 5670 5666 5661 5656 5652 5648 5644 5639 5635 5631 5628 5630 5629 5627 5624 5623 5622 5622 5622 5623
5709 5710 5710 5711 5711 5710 5710 5709 5707 5706 5704 5702 5699 5696 5693 5690 5686 5682 5678 5674 5670 5666 5661 5657 5652 5647 5642 5638 5633 5629 5624 5620 5616 5612 5611 5612 5611 5610 5608 5606 5605 5605 5605
Wind_Speed
19 19 18 18 17 17 16 15 15 14 13 13 13 13 13 12 12 12 12 12 12 12 12 12 12 12 12 12 12 12 11 11 11 11 11 12 12 12 12 13 12 12 12
21 20 20 19 18 18 17 17 16 16 15 15 15 15 14 14 14 14 14 14 14 14 14 14 14 14 14 14 14 14 14 14 14 14 14 14 14 14 14 14 14 14 14
21 21 21 20 19 19 18 18 17 17 17 16 16 16 16 16 16 16 16 16 16 16 16 17 17 17 17 17 17 16 16 16 16 16 16 16 16 16 16 16 16 16 15
21 21 21 21 20 20 20 19 19 19 18 18 18 18 18 18 18 18 17 17 18 18 18 18 19 19 19 19 19 19 18 18 19 19 18 18 18 18 18 18 18 18 18
22 22 22 21 21 21 21 21 20 20 20 20 20 20 20 20 20 20 20 19 20 20 20 20 21 21 21 21 21 21 21 21 21 21 21 21 21 20 20 20 20 20 20
23 22 22 22 22 22 22 22 22 22 22 22 22 22 22 22 22 22 22 22 22 22 23 23 23 23 24 24 24 24 24 23 23 23 23 22 23 23 23 22 22 22 22
24 24 23 23 23 23 23 23 23 23 23 23 23 23 23 23 24 24 24 24 25 25 25 26 26 25 26 26 26 26 27 26 26 26 25 25 25 25 25 25 24 24 24
25 25 25 24 24 24 24 24 24 24 24 24 24 24 25 25 26 26 26 27 27 27 28 28 28 28 28 28 28 28 29 29 29 29 28 28 28 28 28 27 27 27 27
27 27 26 26 26 26 26 26 26 25 25 25 26 26 26 27 27 27 28 28 29 29 29 29 30 29 30 30 30 30 30 31 32 32 32 31 31 30 30 30 30 29 30
28 28 28 27 27 27 27 27 27 26 26 27 27 27 28 28 29 29 29 30 30 30 31 31 31 31 32 32 32 33 33 33 33 34 35 35 34 34 33 33 33 33 32
30 29 29 29 28 28 28 28 28 28 28 28 28 29 29 29 30 30 31 31 32 32 32 33 33 34 34 34 34 35 35 35 35 36 36 37 37 36 36 36 36 36 35
31 31 30 30 30 29 29 29 29 29 29 29 30 30 30 30 31 31 32 32 33 33 34 34 35 35 36 37 37 37 38 38 38 38 38 38 39 39 38 39 38 38 38
32 32 31 31 30 30 30 30 30 30 30 30 30 30 31 31 31 32 32 33 34 34 35 35 36 37 37 38 38 39 39 40 40 39 39 40 40 41 41 41 41 41 40
32 32 32 31 31 31 31 31 31 31 30 30 30 30 31 31 32 33 34 34 35 36 36 37 37 38 39 39 40 41 41 42 42 42 42 42 43 43 44 44 44 44 43
31 31 31 32 32 32 31 31 31 30 30 30 31 32 33 33 34 35 36 36 37 38 38 39 40 41 41 42 43 43 44 45 45 45 44 44 44 45 46 46 46 46 46
31 31 31 31 31 31 31 31 30 30 31 31 32 33 34 34 35 36 37 37 38 39 40 41 41 42 43 44 45 45 46 46 47 47 47 47 48 48 48 48 48 49 49
30 30 30 31 31 31 31 31 31 31 32 32 33 34 35 35 36 37 38 39 40 41 42 43 43 44 45 46 47 47 48 48 49 50 50 51 51 51 51 51 51 51 51
30 30 30 31 31 31 31 31 32 32 33 33 34 35 36 37 38 39 40 41 42 43 44 44 45 46 47 47 48 49 50 51 51 52 53 53 54 54 54 55 55 54 54
29 30 30 30 31 31 31 32 32 33 34 34 35 36 37 38 39 40 41 42 43 44 45 46 47 48 49 50 51 51 52 53 54 55 55 56 57 57 58 57 57 57 57
29 29 29 30 30 31 31 32 33 33 34 35 36 37 38 40 41 41 42 43 44 45 46 47 48 50 52 53 54 54 55 56 57 57 58 59 59 60 61 61 61 61 61
30 29 30 30 31 31 32 33 34 34 35 36 37 38 39 41 42 43 44 45 46 47 48 50 51 52 53 54 56 56 57 58 59 60 61 61 61 62 63 64 64 63 63
30 30 30 31 31 32 33 33 34 35 36 37 38 40 41 42 43 45 45 46 47 49 50 51 52 53 54 56 58 59 59 60 60 61 62 62 63 63 64 64 65 65 64
30 30 31 32 33 33 34 35 35 36 37 39 40 41 43 43 45 46 47 48 48 50 51 52 53 54 55 56 57 59 60 61 61 60 60 61 61 62 63 64 65 66 66
32 32 33 34 34 35 35 36 37 38 39 40 41 42 43 45 46 47 48 49 50 51 52 53 54 55 56 57 58 59 60 61 62 60 58 58 59 59 60 61 62 63 64
33 34 35 35 35 36 37 38 39 40 41 41 42 43 45 46 47 48 49 50 51 52 52 53 54 55 56 57 57 58 59 59 60 60 58 56 56 56 56 57 59 61 63
35 36 36 35 36 37 38 39 40 41 42 43 44 45 46 47 48 49 50 51 51 52 53 53 54 55 56 56 56 56 57 57 58 59 58 56 55 55 56 57 57 58 61
Wind_Direction
247 246 246 248 249 248 248 249 250 250 250 249 251 254 254 256 258 262 261 264 266 267 268 269 270 270 272 274 274 273 273 273 271 271 271 270 269 269 269 268 268 272 272
248 247 248 248 248 248 248 249 251 251 252 251 252 255 258 260 261 263 264 266 267 267 267 269 270 271 271 271 272 272 272 273 272 271 271 271 270 269 268 269 269 271 271
247 247 248 248 247 248 248 248 249 250 251 252 253 255 259 261 263 266 266 267 268 269 269 270 270 271 271 271 271 271 270 271 271 272 271 271 270 269 269 268 269 269 270
247 247 247 247 248 249 249 249 250 252 254 255 257 258 261 263 265 267 269 269 270 270 270 270 271 271 271 271 271 270 269 269 269 270 271 270 269 269 269 268 268 268 268
247 248 248 248 249 249 250 251 253 254 256 258 260 262 263 265 266 267 269 270 271 271 271 271 271 271 271 271 271 270 269 269 269 269 270 269 269 268 268 268 267 267 267
248 248 249 249 251 252 253 254 255 257 258 260 262 263 265 266 267 267 269 271 271 272 271 270 270 270 270 270 270 270 269 269 269 268 268 269 268 267 268 267 267 267 266
248 248 249 250 252 254 255 256 257 258 259 261 263 264 266 267 268 269 270 271 272 272 272 271 269 270 270 270 270 269 268 268 268 268 268 268 268 267 267 266 266 266 266
249 249 251 252 254 255 256 257 258 259 260 262 264 266 267 268 270 271 272 272 273 273 272 272 272 271 271 271 271 270 269 269 268 267 267 267 267 267 266 266 265 264 265
250 251 252 253 255 255 256 258 259 260 261 263 265 266 268 269 270 272 273 273 273 274 273 273 273 273 272 272 271 271 270 270 269 267 267 268 268 267 267 266 265 265 265
250 252 253 254 255 256 257 259 260 261 262 264 265 266 268 270 271 272 273 273 273 273 273 273 273 273 272 272 272 272 271 271 270 269 268 268 267 267 267 266 265 265 265
251 252 254 255 256 257 258 259 261 262 264 265 266 267 268 270 271 272 273 273 274 274 274 274 273 273 273 272 272 272 272 272 271 270 270 269 268 267 266 266 265 265 265
251 252 253 255 256 257 259 260 261 263 264 265 267 268 269 270 271 272 273 274 274 275 275 274 274 273 273 273 273 273 272 272 272 271 270 269 268 267 267 266 265 265 264
252 253 254 255 257 258 259 261 262 263 265 266 267 268 269 271 272 273 274 275 275 275 276 275 275 275 274 274 274 273 273 272 272 271 271 270 270 268 267 266 266 265 265
252 253 254 255 257 258 259 260 262 263 264 266 267 269 270 272 273 274 275 277 276 276 276 276 276 276 275 275 274 274 274 273 273 272 271 270 270 269 268 267 266 265 264
252 253 254 255 257 258 259 260 262 263 265 266 268 270 271 273 274 276 277 277 278 277 277 277 276 276 276 275 274 274 274 273 273 272 271 270 269 269 268 266 266 265 264
251 253 254 255 256 257 258 260 262 263 265 267 270 271 273 274 275 276 278 278 278 278 278 278 278 277 277 277 276 276 275 274 273 272 271 270 269 269 268 266 266 265 265
251 253 254 254 256 257 259 261 261 264 266 269 270 272 274 275 276 277 279 279 279 279 279 279 279 279 278 277 276 276 276 275 275 273 272 271 270 269 268 267 266 265 265
251 252 253 255 256 258 260 261 262 264 267 269 271 273 275 276 277 278 279 280 280 280 280 280 280 279 278 277 277 276 276 276 275 274 273 271 270 269 268 267 266 265 265
251 252 254 255 257 259 260 261 263 266 268 271 273 275 276 277 278 279 280 280 281 281 281 281 281 280 279 278 278 277 277 276 276 275 274 272 271 269 268 267 266 265 265
251 253 255 256 258 260 262 263 265 268 270 272 274 276 277 278 280 281 282 282 282 282 282 282 282 282 281 280 280 279 278 278 277 276 275 273 272 271 269 267 266 265 264
252 254 256 258 260 262 264 265 267 270 271 274 276 277 279 280 282 282 283 283 284 284 284 283 283 283 283 283 282 281 280 279 278 278 276 274 273 272 270 268 267 265 263
253 255 257 260 262 264 266 268 270 272 274 276 278 280 281 282 283 284 284 285 285 285 285 285 285 285 285 285 284 283 281 279 279 278 277 276 274 273 270 268 267 266 264
253 256 259 261 264 266 268 270 272 274 276 278 280 281 282 284 284 285 285 286 287 287 287 286 286 287 287 286 286 285 284 282 280 279 277 276 275 273 271 269 267 265 264
255 257 260 263 266 268 270 272 274 276 277 279 281 282 284 285 285 286 287 287 288 288 288 288 288 288 288 288 287 287 286 286 284 280 277 276 276 274 272 270 268 266 264
256 258 261 264 267 269 271 273 275 277 279 281 282 284 285 285 286 287 288 288 289 290 290 290 290 291 290 290 289 288 288 287 286 283 279 277 276 275 274 272 270 267 265
257 260 263 266 268 270 272 274 277 279 280 282 283 285 286 287 287 288 289 289 290 291 291 291 292 292 292 291 291 290 290 288 287 284 281 277 275 275 274 273 271 269 267